| time (UTC) | temp C | wind direction | speed KPH | gust KPH | rain 1hr cm | rain 24hr cm | rain mn cm | humidity % | barometer mb |
| 20260506050903 | 9 | 59 | 8.0 | 11.3 | 0.00 | 0.00 | 0.00 | 80 | 1016.2 |
| 20260506050213 | 9 | 71 | 8.0 | 11.3 | 0.00 | 0.00 | 0.00 | 80 | 1016.2 |
| 20260506044503 | 9 | 74 | 4.8 | 6.4 | 0.00 | 0.00 | 0.00 | 80 | 1016.2 |
| 20260506043603 | 9 | 14 | 3.2 | 8.0 | 0.00 | 0.00 | 0.00 | 80 | 1016.1 |
| 20260506042912 | 9 | 48 | 4.8 | 8.0 | 0.00 | 0.00 | 0.00 | 80 | 1015.9 |
| 20260506041803 | 9 | 1 | 4.8 | 6.4 | 0.00 | 0.00 | 0.00 | 80 | 1015.9 |
| 20260506040903 | 9 | 40 | 4.8 | 6.4 | 0.00 | 0.00 | 0.00 | 80 | 1016.2 |
| 20260506040003 | 9 | 27 | 4.8 | 6.4 | 0.00 | 0.00 | 0.00 | 80 | 1015.9 |
| 20260506035614 | 9 | 30 | 4.8 | 6.4 | 0.00 | 0.00 | 0.00 | 80 | 1015.8 |
| 20260506034713 | 9 | 64 | 4.8 | 4.8 | 0.00 | 0.00 | 0.00 | 80 | 1015.7 |
| 20260506033603 | 9 | 81 | 3.2 | 4.8 | 0.00 | 0.00 | 0.00 | 80 | 1015.8 |
| 20260506032703 | 9 | 48 | 3.2 | 4.8 | 0.00 | 0.00 | 0.00 | 80 | 1015.7 |
| 20260506031803 | 9 | 87 | 3.2 | 4.8 | 0.00 | 0.00 | 0.00 | 80 | 1015.9 |
| 20260506030903 | 9 | 14 | 3.2 | 4.8 | 0.00 | 0.00 | 0.00 | 80 | 1016.1 |
| 20260506030003 | 9 | 62 | 3.2 | 4.8 | 0.00 | 0.00 | 0.00 | 80 | 1015.8 |
| 20260506025403 | 9 | 66 | 4.8 | 4.8 | 0.00 | 0.00 | 0.00 | 80 | 1015.9 |
| 20260506024503 | 9 | 42 | 3.2 | 4.8 | 0.00 | 0.00 | 0.00 | 79 | 1016.2 |
| 20260506023603 | 9 | 58 | 3.2 | 4.8 | 0.00 | 0.00 | 0.00 | 79 | 1016.0 |
| 20260506022703 | 9 | 42 | 3.2 | 4.8 | 0.00 | 0.00 | 0.00 | 78 | 1015.8 |
| 20260506021803 | 9 | 32 | 3.2 | 6.4 | 0.00 | 0.00 | 0.00 | 78 | 1016.1 |
| 20260506020903 | 9 | 22 | 4.8 | 6.4 | 0.00 | 0.00 | 0.00 | 77 | 1015.9 |
| 20260506020003 | 9 | 25 | 3.2 | 4.8 | 0.00 | 0.00 | 0.00 | 77 | 1015.9 |
| 20260506015613 | 9 | 37 | 4.8 | 4.8 | 0.00 | 0.00 | 0.00 | 76 | 1016.1 |
| 20260506014503 | 9 | 32 | 3.2 | 4.8 | 0.00 | 0.00 | 0.00 | 76 | 1016.0 |
| 20260506013603 | 10 | 58 | 3.2 | 4.8 | 0.00 | 0.00 | 0.00 | 76 | 1016.0 |
| 20260506012703 | 10 | 38 | 3.2 | 4.8 | 0.00 | 0.00 | 0.00 | 76 | 1016.0 |
| 20260506011803 | 9 | 354 | 3.2 | 3.2 | 0.00 | 0.00 | 0.00 | 75 | 1016.1 |
| 20260506011114 | 10 | 352 | 3.2 | 4.8 | 0.00 | 0.00 | 0.00 | 75 | 1016.3 |
| 20260506010004 | 10 | 346 | 4.8 | 6.4 | 0.00 | 0.00 | 0.00 | 76 | 1016.2 |
| 20260506005403 | 10 | 25 | 4.8 | 6.4 | 0.00 | 0.00 | 0.00 | 76 | 1016.3 |
| 20260506004503 | 10 | 27 | 3.2 | 6.4 | 0.00 | 0.00 | 0.00 | 76 | 1016.5 |
| 20260506003603 | 10 | 69 | 3.2 | 4.8 | 0.00 | 0.00 | 0.00 | 75 | 1016.5 |
| 20260506002703 | 10 | 55 | 3.2 | 4.8 | 0.00 | 0.00 | 0.00 | 75 | 1016.5 |
| 20260506001803 | 10 | 18 | 3.2 | 6.4 | 0.00 | 0.00 | 0.00 | 75 | 1016.4 |
| 20260506000903 | 10 | 55 | 3.2 | 6.4 | 0.00 | 0.00 | 0.00 | 75 | 1016.3 |
| 20260506000003 | 10 | 48 | 3.2 | 6.4 | 0.00 | 0.00 | 0.00 | 74 | 1016.4 |
| 20260505235403 | 10 | 54 | 3.2 | 4.8 | 0.00 | 0.00 | 0.00 | 74 | 1016.7 |
| 20260505234503 | 10 | 28 | 3.2 | 4.8 | 0.00 | 0.00 | 0.00 | 74 | 1016.3 |
| 20260505233603 | 10 | 16 | 3.2 | 4.8 | 0.00 | 0.00 | 0.00 | 74 | 1016.4 |
| 20260505232703 | 10 | 6 | 3.2 | 4.8 | 0.00 | 0.00 | 0.00 | 73 | 1016.6 |
| 20260505231803 | 10 | 348 | 4.8 | 6.4 | 0.00 | 0.00 | 0.00 | 73 | 1016.2 |
| 20260505231113 | 10 | 351 | 3.2 | 6.4 | 0.00 | 0.00 | 0.00 | 73 | 1016.5 |
| 20260505230004 | 10 | 342 | 4.8 | 8.0 | 0.00 | 0.00 | 0.00 | 72 | 1016.6 |
| 20260505225403 | 10 | 5 | 3.2 | 3.2 | 0.00 | 0.00 | 0.00 | 72 | 1016.8 |
| 20260505224503 | 10 | 39 | 3.2 | 4.8 | 0.00 | 0.00 | 0.00 | 72 | 1016.7 |
| 20260505223603 | 10 | 57 | 3.2 | 4.8 | 0.00 | 0.00 | 0.00 | 72 | 1016.6 |
| 20260505222703 | 10 | 66 | 3.2 | 4.8 | 0.00 | 0.00 | 0.00 | 71 | 1016.7 |
| 20260505222013 | 10 | 11 | 3.2 | 4.8 | 0.00 | 0.00 | 0.00 | 71 | 1016.7 |
| 20260505220903 | 10 | 12 | 3.2 | 6.4 | 0.00 | 0.00 | 0.00 | 71 | 1016.6 |
| 20260505220003 | 10 | 5 | 4.8 | 6.4 | 0.00 | 0.00 | 0.00 | 71 | 1016.6 |
| 20260505215403 | 10 | 74 | 3.2 | 4.8 | 0.00 | 0.00 | 0.00 | 71 | 1016.6 |
| 20260505214713 | 10 | 40 | 4.8 | 6.4 | 0.00 | 0.00 | 0.00 | 70 | 1016.6 |
| 20260505213603 | 10 | 40 | 4.8 | 6.4 | 0.00 | 0.00 | 0.00 | 70 | 1016.7 |
| 20260505212703 | 10 | 54 | 4.8 | 6.4 | 0.00 | 0.00 | 0.00 | 70 | 1016.6 |
| 20260505211803 | 11 | 38 | 4.8 | 8.0 | 0.00 | 0.00 | 0.00 | 70 | 1016.9 |
| 20260505210903 | 11 | 85 | 4.8 | 6.4 | 0.00 | 0.00 | 0.00 | 70 | 1016.8 |
| 20260505210003 | 11 | 98 | 4.8 | 8.0 | 0.00 | 0.00 | 0.00 | 70 | 1016.8 |
| 20260505205403 | 11 | 79 | 4.8 | 8.0 | 0.00 | 0.00 | 0.00 | 70 | 1016.7 |
| 20260505204503 | 11 | 359 | 6.4 | 8.0 | 0.00 | 0.00 | 0.00 | 70 | 1016.7 |
| 20260505203603 | 11 | 19 | 4.8 | 8.0 | 0.00 | 0.00 | 0.00 | 69 | 1016.6 |
| 20260505202913 | 11 | 13 | 4.8 | 6.4 | 0.00 | 0.00 | 0.00 | 69 | 1016.7 |
| 20260505202013 | 11 | 65 | 4.8 | 6.4 | 0.00 | 0.00 | 0.00 | 68 | 1016.6 |
| 20260505200903 | 11 | 27 | 4.8 | 6.4 | 0.00 | 0.00 | 0.00 | 67 | 1016.3 |
| 20260505200003 | 11 | 68 | 4.8 | 6.4 | 0.00 | 0.00 | 0.00 | 67 | 1016.3 |
| 20260505195613 | 11 | 95 | 4.8 | 6.4 | 0.00 | 0.00 | 0.00 | 67 | 1016.4 |
| 20260505194503 | 12 | 68 | 6.4 | 8.0 | 0.00 | 0.00 | 0.00 | 66 | 1016.1 |
| 20260505193603 | 12 | 52 | 6.4 | 8.0 | 0.00 | 0.00 | 0.00 | 66 | 1016.0 |
| 20260505192913 | 12 | 53 | 6.4 | 9.7 | 0.00 | 0.00 | 0.00 | 66 | 1016.1 |
| 20260505191803 | 12 | 46 | 4.8 | 6.4 | 0.00 | 0.00 | 0.00 | 62 | 1016.0 |
| 20260505191113 | 12 | 4 | 4.8 | 6.4 | 0.00 | 0.00 | 0.00 | 62 | 1016.1 |
| 20260505190213 | 12 | 338 | 6.4 | 9.7 | 0.00 | 0.00 | 0.00 | 61 | 1015.9 |
| 20260505185612 | 12 | 327 | 6.4 | 8.0 | 0.00 | 0.00 | 0.00 | 61 | 1016.1 |
| 20260505184503 | 12 | 25 | 4.8 | 6.4 | 0.00 | 0.00 | 0.00 | 61 | 1016.0 |
| 20260505183813 | 12 | 332 | 6.4 | 11.3 | 0.00 | 0.00 | 0.00 | 61 | 1015.9 |
| 20260505182703 | 12 | 335 | 6.4 | 11.3 | 0.00 | 0.00 | 0.00 | 61 | 1015.8 |
| 20260505181803 | 13 | 317 | 8.0 | 12.9 | 0.00 | 0.00 | 0.00 | 61 | 1015.7 |
| 20260505180903 | 13 | 327 | 9.7 | 14.5 | 0.00 | 0.00 | 0.00 | 60 | 1015.8 |
| 20260505180003 | 13 | 334 | 9.7 | 14.5 | 0.00 | 0.00 | 0.00 | 56 | 1016.0 |
| 20260505175403 | 13 | 140 | 9.7 | 12.9 | 0.00 | 0.00 | 0.00 | 55 | 1015.8 |
| 20260505174504 | 14 | 319 | 9.7 | 17.7 | 0.00 | 0.00 | 0.00 | 55 | 1015.7 |
| 20260505173813 | 14 | 325 | 9.7 | 17.7 | 0.00 | 0.00 | 0.00 | 54 | 1015.8 |
| 20260505172703 | 14 | 336 | 12.9 | 17.7 | 0.00 | 0.00 | 0.00 | 52 | 1015.8 |
| 20260505171803 | 14 | 12 | 11.3 | 14.5 | 0.00 | 0.00 | 0.00 | 52 | 1016.1 |
| 20260505170903 | 15 | 54 | 11.3 | 17.7 | 0.00 | 0.00 | 0.00 | 51 | 1016.0 |
| 20260505170212 | 15 | 22 | 9.7 | 17.7 | 0.00 | 0.00 | 0.00 | 51 | 1015.7 |
| 20260505165403 | 15 | 333 | 11.3 | 17.7 | 0.00 | 0.00 | 0.00 | 51 | 1016.0 |
| 20260505164503 | 15 | 15 | 11.3 | 16.1 | 0.00 | 0.00 | 0.00 | 51 | 1015.8 |
| 20260505163603 | 16 | 19 | 9.7 | 16.1 | 0.00 | 0.00 | 0.00 | 50 | 1015.9 |
| 20260505162703 | 15 | 334 | 12.9 | 17.7 | 0.00 | 0.00 | 0.00 | 48 | 1015.8 |
| 20260505161803 | 15 | 319 | 11.3 | 14.5 | 0.00 | 0.00 | 0.00 | 50 | 1015.8 |
| 20260505160903 | 16 | 49 | 9.7 | 12.9 | 0.00 | 0.00 | 0.00 | 50 | 1015.8 |
| 20260505152703 | 16 | 25 | 11.3 | 14.5 | 0.00 | 0.00 | 0.00 | 50 | 1016.0 |
| 20260505152013 | 16 | 346 | 8.0 | 14.5 | 0.00 | 0.00 | 0.00 | 48 | 1016.0 |
| 20260505150903 | 16 | 30 | 8.0 | 12.9 | 0.00 | 0.00 | 0.00 | 50 | 1016.1 |
| 20260505150213 | 16 | 41 | 9.7 | 12.9 | 0.00 | 0.00 | 0.00 | 49 | 1016.0 |
| 20260505140213 | 17 | 47 | 11.3 | 16.1 | 0.00 | 0.00 | 0.00 | 46 | 1016.3 |
| 20260505124713 | 17 | 350 | 11.3 | 14.5 | 0.00 | 0.00 | 0.00 | 45 | 1016.6 |
| 20260505123603 | 17 | 346 | 9.7 | 14.5 | 0.00 | 0.00 | 0.00 | 46 | 1016.5 |
| 20260505122703 | 17 | 10 | 12.9 | 17.7 | 0.00 | 0.00 | 0.00 | 51 | 1016.5 |
| 20260505121803 | 16 | 34 | 11.3 | 16.1 | 0.00 | 0.00 | 0.00 | 52 | 1016.7 |
| 20260505120903 | 16 | 8 | 11.3 | 12.9 | 0.00 | 0.00 | 0.00 | 51 | 1016.7 |
| 20260505120212 | 16 | 47 | 11.3 | 16.1 | 0.00 | 0.00 | 0.00 | 53 | 1016.6 |
| 20260505115403 | 16 | 12 | 11.3 | 17.7 | 0.00 | 0.00 | 0.00 | 51 | 1016.5 |
| 20260505114503 | 16 | 9 | 11.3 | 17.7 | 0.00 | 0.00 | 0.00 | 53 | 1016.5 |
| 20260505113603 | 17 | 91 | 11.3 | 16.1 | 0.00 | 0.00 | 0.00 | 51 | 1016.6 |
| 20260505112703 | 17 | 21 | 12.9 | 16.1 | 0.00 | 0.00 | 0.00 | 52 | 1016.8 |
| 20260505111803 | 16 | 25 | 12.9 | 17.7 | 0.00 | 0.00 | 0.00 | 52 | 1016.8 |
| 20260505110903 | 16 | 349 | 11.3 | 16.1 | 0.00 | 0.00 | 0.00 | 52 | 1016.7 |
| 20260505101803 | 15 | 58 | 11.3 | 17.7 | 0.00 | 0.00 | 0.00 | 56 | 1017.1 |
| 20260505100903 | 15 | 61 | 11.3 | 14.5 | 0.00 | 0.00 | 0.00 | 56 | 1017.1 |
| 20260505100003 | 15 | 47 | 11.3 | 14.5 | 0.00 | 0.00 | 0.00 | 60 | 1017.3 |
| 20260505095403 | 15 | 11 | 9.7 | 14.5 | 0.00 | 0.00 | 0.00 | 61 | 1017.1 |
| 20260505094503 | 15 | 83 | 8.0 | 12.9 | 0.00 | 0.00 | 0.00 | 65 | 1017.1 |
| 20260505093603 | 13 | 78 | 8.0 | 12.9 | 0.00 | 0.00 | 0.00 | 68 | 1017.0 |
| 20260505092703 | 13 | 5 | 8.0 | 12.9 | 0.00 | 0.00 | 0.00 | 69 | 1017.1 |
| 20260505091803 | 13 | 71 | 9.7 | 12.9 | 0.00 | 0.00 | 0.00 | 70 | 1017.1 |
| 20260505090903 | 12 | 37 | 8.0 | 12.9 | 0.00 | 0.00 | 0.00 | 72 | 1016.9 |
| 20260505090213 | 12 | 38 | 6.4 | 9.7 | 0.00 | 0.00 | 0.00 | 74 | 1017.1 |
| 20260505085403 | 12 | 116 | 8.0 | 16.1 | 0.00 | 0.00 | 0.00 | 74 | 1017.3 |
| 20260505084503 | 12 | 33 | 9.7 | 16.1 | 0.00 | 0.00 | 0.00 | 75 | 1017.3 |
| 20260505083603 | 12 | 349 | 9.7 | 12.9 | 0.00 | 0.00 | 0.00 | 73 | 1017.0 |
| 20260505082703 | 12 | 32 | 9.7 | 14.5 | 0.00 | 0.00 | 0.00 | 76 | 1017.3 |
| 20260505081803 | 12 | 33 | 8.0 | 9.7 | 0.00 | 0.00 | 0.00 | 81 | 1017.3 |
| 20260505080903 | 11 | 25 | 8.0 | 11.3 | 0.00 | 0.00 | 0.00 | 83 | 1017.1 |
| 20260505080004 | 11 | 41 | 8.0 | 11.3 | 0.00 | 0.00 | 0.00 | 83 | 1017.2 |
| 20260505075403 | 11 | 34 | 8.0 | 8.0 | 0.00 | 0.00 | 0.00 | 84 | 1017.4 |
| 20260505074503 | 11 | 357 | 6.4 | 9.7 | 0.00 | 0.00 | 0.00 | 84 | 1017.2 |
| 20260505073603 | 11 | 37 | 6.4 | 9.7 | 0.00 | 0.00 | 0.00 | 86 | 1017.3 |
| 20260505072703 | 11 | 43 | 6.4 | 8.0 | 0.00 | 0.00 | 0.00 | 87 | 1017.3 |
| 20260505071803 | 11 | 11 | 6.4 | 8.0 | 0.00 | 0.00 | 0.00 | 89 | 1017.3 |
| 20260505070903 | 10 | 360 | 4.8 | 6.4 | 0.00 | 0.00 | 0.00 | 90 | 1017.5 |
| 20260505070003 | 10 | 5 | 4.8 | 6.4 | 0.00 | 0.00 | 0.00 | 92 | 1017.5 |
| 20260505065403 | 10 | 10 | 4.8 | 6.4 | 0.00 | 0.00 | 0.00 | 92 | 1017.3 |
| 20260505064713 | 10 | 106 | 4.8 | 6.4 | 0.00 | 0.00 | 0.00 | 94 | 1017.2 |
| 20260505063603 | 10 | 33 | 4.8 | 6.4 | 0.00 | 0.00 | 0.00 | 95 | 1017.3 |
| 20260505062703 | 10 | 45 | 4.8 | 6.4 | 0.00 | 0.00 | 0.00 | 96 | 1017.1 |
| 20260505061803 | 10 | 75 | 4.8 | 6.4 | 0.00 | 0.00 | 0.00 | 96 | 1017.3 |
| 20260505060903 | 9 | 36 | 4.8 | 6.4 | 0.00 | 0.00 | 0.00 | 96 | 1017.1 |
| 20260505060003 | 9 | 63 | 4.8 | 4.8 | 0.00 | 0.00 | 0.00 | 96 | 1017.1 |